FENGYUN 1C DEB, 29772

Orbit data source: Space-Track

FENGYUN 1C DEB, 29772 is space debris in SSO originally from a launch on Mon, 10 May 1999 UTC launched from the Taiyaun Space Center, China (TSC). Fengyun 1C debris stems from the Chinese weather satellite Fengyun-1C, which was intentionally destroyed by a Chinese anti-satellite missile in 2007. This event dramatically increased the amount of space debris, with thousands of trackable fragments posing hazards to satellites and human spaceflight. The Fengyun 1C debris cloud has become a focal point in discussions about space sustainability and the need for international regulations to prevent the creation of new debris.

Loading next visibility...
Identifier
29772, 1999-025BN
Orbit
SSO
Country
Flag of CNCN / PRC
Related business
Manufacturer
Unknown
Mission
Spacecraft
Bus & Motor
Unknown
Mass
Unknown
Launch date (UTC)
1999-05-10 (27 years ago)
Launch vehicle
Unknown
Launch site
Taiyaun Space Center, China (TSC)
Object type
Payload
Rocket body
Debris
Shape & HBR
Unknown shape, 0.1 m
Radar Cross Section
Small (<0.1 m²)

Expand to show TLE details & history
Last TLE update: 21 hours ago

TLE from 21 hours ago
0 FENGYUN 1C DEB
1 29772U 99025BN  26170.02077722  .00001278  00000-0  76738-3 0  9997
2 29772  98.3769   9.6766 0137878 116.5117  36.1338 14.03838990988960
Epoch: 2026-06-19T00:29Z
TLE epoch observation values (Epoch: 2026-06-19T00:29:55.151Z)
Latitude
26.14175°
Longitude
-80.9365°
Altitude
803.34 km
Speed
7.495 km/s
True Right ascension
12h 55m 11s
True Declination
26° 00' 25"
Sunlit
Object was in daylight at epoch
Visualization orbit readout
Latitude
Unknown
Longitude
Unknown
Altitude
Unknown
Speed
Unknown
Apparent Right ascension
Unknown
Apparent Declination
Unknown
Sunlit
N/A
Visualization observer readout
Local Sidereal Time
08:43:25
Azimuth
Unknown
Elevation
Unknown
Doppler factor
Unknown
Orbital elements
Apogee altitude
977.738 km
Perigee altitude
777.654 km
Semi-major axis
7,255.833 km
Eccentricity
0.01379
Inclination
98.3769°
RAAN
9.6766°
Arg. of periapsis
116.5117°
True anomaly
37.07856°
Mean anomaly
36.1338°
Eccentric anomaly
36.60486°
Mean motion
3.51166 °/min
Orbital period
102.52 mins
BSTAR
0.00076738
Loading maneuver chart data...
Computing Atmospheric mass density...

Documentation

Showing up to 5 results
|